{"data":{"norad_id":63794,"intl_designator":"2025-091V","name":"STARLINK-33870","alt_names":[],"object_type":"PAYLOAD","status":"ACTIVE","operator":null,"country":"US","launch_date":"2025-05-02","launch_site_code":"AFETR","launch_vehicle":null,"mission":null,"orbit_class":"UNKNOWN","rcs_meters":null,"size_class":null,"mass_kg":null,"dimensions":null,"purposes":["comms"],"wikipedia_slug":null,"has_3d_model":false,"image_url":null,"decayed_at":null,"tle_current":{"epoch":"2026-05-24T14:11:03.562080Z","epoch_age_seconds":100636,"freshness":"FRESH","line1":"1 63794U 25091V   26144.59101345  .00017916  00000+0  65880-3 0  9994","line2":"2 63794  43.0012 343.5885 0000981 271.7118  88.3622 15.27590229 60515","mean_motion":15.27590229,"eccentricity":9.81e-5,"inclination_deg":43.0012,"raan_deg":343.5885,"arg_perigee_deg":271.7118,"mean_anomaly_deg":88.3622,"bstar":0.0006588,"rev_number":6051,"period_min":94.266117487715,"perigee_km":482.3453875534,"apogee_km":483.69154625601,"semimajor_km":6861.1554669047,"source":"CELESTRAK","updated_at":"2026-05-25T13:38:20.136789Z"}}}